Weather History for Bradford, PA

Change the Weather History Date:

Monday, February 4, 2013

  Actual Average Record
Temperature  
Mean Temperature 16 °F 22 °F  
Max Temperature 19 °F 30 °F 54 °F (1962)
Min Temperature 12 °F 14 °F -18 °F (1978)
Degree Days  
Heating Degree Days 50 37  
Month to date heating degree days 150  
Since 1 July heating degree days 4561  
Cooling Degree Days 0 0  
Month to date cooling degree days 0  
Year to date cooling degree days 0  
Moisture  
Dew Point 10 °F    
Average Humidity 75    
Maximum Humidity 84    
Minimum Humidity 65    
Precipitation  
Precipitation 0.00 in 0.09 in 0.97 in (1986)
Month to date precipitation 0.34  
Year to date precipitation 3.63  
Sea Level Pressure  
Sea Level Pressure 29.85 in    
Wind  
Wind Speed 6 mph (WSW)    
Max Wind Speed 10 mph    
Max Gust Speed 20 mph    
Visibility 2 miles    
Events Snow    
T = Trace of Precipitation, MM = Missing Value Source: NWS Daily Summary

Daily Weather History Graph

Daily Weather History Graph

Search for Another Location

Airport:

Trip Planner

Search our weather history database for the weather conditions in past years. The results will help you decide how hot, cold, wet, or windy it might be!

Date:

Astronomy

Feb. 04, 2013 Rise Set
Actual Time 7:23 AM EST 5:34 PM EST
Civil Twilight 6:54 AM EST 6:03 PM EST
Nautical Twilight 6:21 AM EST 6:36 PM EST
Astronomical Twilight 5:48 AM EST 7:09 PM EST
Moon 1:58 AM EST (2/4) 11:55 AM EST (2/4)
Length of Visible Light 11h 09m
Length of Day
10h 10m
Last Quarter, 37% of the Moon is Illuminated
Feb 4
Last Quarter
Feb 10
New
Feb 17
First Quarter
Feb 25
Full
Mar 4
Last Quarter

Hourly Weather History & Observations

Time (EST) Temp. Windchill Dew Point Humidity Pressure Visibility Wind Dir Wind Speed Gust Speed Precip Events Conditions
12:06 AM 14.0 °F 5.1 °F 8.1 °F 77% 29.78 in 1.8 mi WSW 5.8 mph - 0.00 in Snow Light Snow
12:14 AM 14.0 °F 2.0 °F 8.1 °F 77% 29.79 in 2.0 mi WSW 9.2 mph - 0.00 in Snow Light Snow
12:22 AM 14.0 °F 2.0 °F 8.1 °F 77% 29.79 in 1.5 mi West 9.2 mph - 0.00 in Snow Light Snow
12:44 AM 14.0 °F 2.9 °F 7.0 °F 74% 29.79 in 2.0 mi West 8.1 mph - 0.00 in Snow Light Snow
12:53 AM 14.0 °F 2.9 °F 8.1 °F 77% 29.89 in 2.0 mi West 8.1 mph - 0.00 in Snow Light Snow
1:05 AM 14.0 °F 2.9 °F 8.1 °F 77% 29.79 in 1.8 mi West 8.1 mph - 0.00 in Snow Light Snow
1:53 AM 14.0 °F 2.9 °F 8.1 °F 77% 29.88 in 1.2 mi West 8.1 mph - 0.00 in Snow Light Snow
2:53 AM 14.0 °F 2.9 °F 8.1 °F 77% 29.91 in 1.5 mi West 8.1 mph - 0.00 in Snow Light Snow
3:23 AM 14.0 °F 2.9 °F 8.1 °F 77% 29.81 in 2.5 mi West 8.1 mph 19.6 mph 0.00 in Snow Light Snow
3:40 AM 14.0 °F 5.1 °F 8.1 °F 77% 29.81 in 1.5 mi West 5.8 mph - 0.00 in Snow Light Snow
3:48 AM 14.0 °F 5.1 °F 8.6 °F 79% 29.81 in 0.8 mi West 5.8 mph - 0.00 in Snow Light Snow
3:53 AM 14.0 °F 5.1 °F 9.0 °F 80% 29.91 in 0.8 mi Variable 5.8 mph - 0.00 in Snow Light Snow
4:04 AM 14.0 °F 2.0 °F 8.1 °F 77% 29.82 in 1.0 mi West 9.2 mph - 0.00 in Snow Light Snow
6:53 AM 12.0 °F 2.7 °F 5.0 °F 73% 29.97 in 3.0 mi West 5.8 mph - 0.00 in Snow Light Snow
7:03 AM 12.0 °F 2.7 °F 6.1 °F 77% 29.86 in 2.5 mi Variable 5.8 mph - 0.00 in Snow Light Snow
7:12 AM 12.0 °F 1.5 °F 6.1 °F 77% 29.86 in 4.0 mi West 6.9 mph - 0.00 in Snow Light Snow
7:53 AM 12.0 °F 2.7 °F 5.0 °F 73% 29.98 in 6.0 mi WSW 5.8 mph - 0.00 in Snow Light Snow
8:11 AM 12.0 °F 2.7 °F 6.1 °F 77% 29.87 in 2.5 mi Variable 5.8 mph - 0.00 in Snow Light Snow
8:53 AM 12.0 °F 2.7 °F 6.1 °F 77% 29.98 in 1.2 mi WSW 5.8 mph - 0.00 in Snow Light Snow
9:02 AM 12.9 °F 3.8 °F 7.0 °F 77% 29.87 in 1.0 mi WSW 5.8 mph - 0.00 in Snow Light Snow
9:53 AM 14.0 °F 3.9 °F 7.0 °F 74% 29.97 in 1.5 mi West 6.9 mph - 0.00 in Snow Light Snow
10:07 AM 14.0 °F 2.0 °F 7.0 °F 74% 29.86 in 2.5 mi SW 9.2 mph - 0.00 in Snow Light Snow
10:48 AM 15.8 °F 4.2 °F 6.8 °F 68% 29.86 in 3.0 mi West 9.2 mph - 0.00 in Snow Light Snow
10:53 AM 15.1 °F 5.2 °F 7.0 °F 70% 29.96 in 3.0 mi West 6.9 mph - 0.00 in Snow Light Snow
11:04 AM 15.1 °F 3.3 °F 7.0 °F 70% 29.85 in 2.5 mi West 9.2 mph - 0.00 in Snow Light Snow
11:23 AM 16.0 °F 6.3 °F 8.1 °F 71% 29.86 in 1.8 mi WNW 6.9 mph 17.3 mph 0.00 in Snow Light Snow
11:53 AM 16.0 °F 4.4 °F 8.1 °F 71% 29.95 in 1.5 mi West 9.2 mph - 0.00 in Snow Light Snow
12:28 PM 17.1 °F 6.6 °F 9.0 °F 71% 29.83 in 2.0 mi West 8.1 mph - 0.00 in Snow Light Snow
12:30 PM 17.1 °F 5.8 °F 9.0 °F 71% 29.83 in 1.8 mi West 9.2 mph - 0.00 in Snow Light Snow
12:53 PM 17.1 °F 10.0 °F 9.0 °F 71% 29.93 in 1.2 mi WSW 4.6 mph - 0.00 in Snow Light Snow
1:36 PM 19.0 °F 10.0 °F 9.0 °F 65% 29.81 in 2.5 mi Variable 6.9 mph - 0.00 in Snow Light Snow
1:43 PM 19.0 °F - 10.0 °F 68% 29.81 in 3.0 mi North - - 0.00 in Snow Light Snow
1:50 PM 19.4 °F 7.9 °F 10.4 °F 68% 29.81 in 1.8 mi West 10.4 mph 16.1 mph 0.00 in Snow Light Snow
1:51 PM 19.0 °F 8.2 °F 10.0 °F 68% 29.91 in 1.8 mi West 9.2 mph - 0.00 in Snow Light Snow
2:02 PM 19.0 °F 9.0 °F 9.0 °F 65% 29.81 in 2.0 mi West 8.1 mph - 0.00 in Snow Light Snow
2:20 PM 19.0 °F 12.3 °F 10.0 °F 68% 29.81 in 3.0 mi Variable 4.6 mph - 0.00 in Snow Light Snow
2:28 PM 19.0 °F 7.5 °F 10.0 °F 68% 29.81 in 2.5 mi SW 10.4 mph - 0.00 in Snow Light Snow
2:38 PM 19.0 °F 9.0 °F 10.0 °F 68% 29.81 in 1.8 mi West 8.1 mph - 0.00 in Snow Light Snow
2:53 PM 19.0 °F 11.1 °F 10.9 °F 71% 29.90 in 2.0 mi Variable 5.8 mph - 0.00 in Snow Light Snow
3:08 PM 19.0 °F 10.0 °F 10.9 °F 71% 29.81 in 1.2 mi Variable 6.9 mph - 0.00 in Snow Light Snow
3:28 PM 19.0 °F 11.1 °F 10.9 °F 71% 29.81 in 2.5 mi West 5.8 mph - 0.00 in Snow Light Snow
3:36 PM 19.9 °F 12.1 °F 10.9 °F 68% 29.80 in 4.0 mi Variable 5.8 mph - 0.00 in Snow Light Snow
3:53 PM 19.0 °F 12.3 °F 10.9 °F 71% 29.89 in 3.0 mi Variable 4.6 mph - 0.00 in Snow Light Snow
4:02 PM 19.0 °F 10.0 °F 10.9 °F 71% 29.79 in 2.0 mi SW 6.9 mph - 0.00 in Snow Light Snow
4:15 PM 19.9 °F 12.1 °F 10.9 °F 68% 29.79 in 3.0 mi West 5.8 mph - 0.00 in Snow Light Snow
4:21 PM 19.0 °F 11.1 °F 10.9 °F 71% 29.79 in 1.8 mi West 5.8 mph - 0.00 in Snow Light Snow
4:35 PM 19.0 °F 13.9 °F 10.9 °F 71% 29.79 in 2.5 mi SW 3.5 mph - 0.00 in Snow Light Snow
4:53 PM 19.0 °F 12.3 °F 10.9 °F 71% 29.88 in 1.8 mi WSW 4.6 mph - 0.00 in Snow Light Snow
5:49 PM 19.4 °F 14.3 °F 12.2 °F 74% 29.78 in 2.5 mi South 3.5 mph - 0.00 in Snow Light Snow
5:53 PM 19.0 °F 13.9 °F 12.9 °F 77% 29.88 in 3.0 mi SSW 3.5 mph - 0.00 in Snow Light Snow
6:53 PM 19.0 °F - 12.9 °F 77% 29.88 in 2.5 mi Calm Calm - 0.00 in Snow Light Snow
7:07 PM 19.0 °F - 12.9 °F 77% 29.78 in 3.0 mi Calm Calm - 0.00 in Snow Light Snow
7:30 PM 18.0 °F - 14.0 °F 84% 29.78 in 2.5 mi Calm Calm - 0.00 in Snow Light Snow
7:38 PM 18.0 °F - 14.0 °F 84% 29.78 in 3.0 mi Calm Calm - 0.00 in Snow Light Snow
7:53 PM 18.0 °F - 14.0 °F 84% 29.89 in 4.0 mi Calm Calm - 0.00 in Snow Light Snow
8:53 PM 18.0 °F - 14.0 °F 84% 29.89 in 4.0 mi Calm Calm - 0.00 in Snow Light Snow
9:34 PM 18.0 °F - 14.0 °F 84% 29.78 in 2.0 mi Calm Calm - 0.00 in Snow Light Snow
9:53 PM 19.0 °F - 14.0 °F 81% 29.88 in 2.5 mi Calm Calm - 0.00 in Snow Light Snow
10:03 PM 18.0 °F - 14.0 °F 84% 29.78 in 3.0 mi Calm Calm - 0.00 in Snow Light Snow
10:38 PM 18.0 °F - 14.0 °F 84% 29.78 in 4.0 mi Calm Calm - 0.00 in Snow Light Snow
10:45 PM 18.0 °F - 14.0 °F 84% 29.78 in 4.0 mi Calm Calm - 0.00 in Snow Light Snow
10:53 PM 18.0 °F - 14.0 °F 84% 29.87 in 3.0 mi Calm Calm - 0.00 in Snow Light Snow
11:53 PM 18.0 °F - 14.0 °F 84% 29.87 in 3.0 mi Calm Calm - 0.00 in Snow Light Snow